This is the latest recevied weather packets stored in our database for station/object OK1KKY-18. If no packets are shown the sender has not sent any weather packets the latest 10 day(s).
| Time | Temp. | Humidity | Pressure | Rain* | Wind** | Luminosity | Snow |
|---|---|---|---|---|---|---|---|
| 1778184968 | 7.78° C | 88% | 1015.4 hPa | - | - | - | - |
| 1778184368 | 7.78° C | 88% | 1015.3 hPa | - | - | - | - |
| 1778183768 | 7.78° C | 88% | 1015.3 hPa | - | - | - | - |
| 1778183168 | 7.78° C | 87% | 1015.1 hPa | - | - | - | - |
| 1778182568 | 8.33° C | 87% | 1014.9 hPa | - | - | - | - |
| 1778181968 | 8.33° C | 86% | 1014.8 hPa | - | - | - | - |
| 1778181368 | 8.33° C | 86% | 1014.5 hPa | - | - | - | - |
| 1778180767 | 8.89° C | 85% | 1014.5 hPa | - | - | - | - |
| 1778180168 | 9.44° C | 82% | 1014.3 hPa | - | - | - | - |
| 1778179568 | 9.44° C | 83% | 1014.2 hPa | - | - | - | - |
| 1778178968 | 10° C | 84% | 1014.2 hPa | - | - | - | - |
| 1778178368 | 10.56° C | 81% | 1014.1 hPa | - | - | - | - |
| 1778177768 | 10.56° C | 81% | 1014 hPa | - | - | - | - |
| 1778177168 | 11.11° C | 79% | 1013.9 hPa | - | - | - | - |
| 1778176568 | 11.67° C | 78% | 1013.8 hPa | - | - | - | - |
| 1778175968 | 11.67° C | 78% | 1014 hPa | - | - | - | - |
| 1778175368 | 11.67° C | 75% | 1013.8 hPa | - | - | - | - |
| 1778174768 | 12.22° C | 78% | 1013.6 hPa | - | - | - | - |
| 1778174168 | 12.78° C | 73% | 1013.5 hPa | - | - | - | - |
| 1778173568 | 12.78° C | 76% | 1013.3 hPa | - | - | - | - |
| 1778172968 | 12.78° C | 74% | 1013.3 hPa | - | - | - | - |
| 1778172368 | 12.78° C | 74% | 1013.1 hPa | - | - | - | - |
| 1778171767 | 12.78° C | 69% | 1013.2 hPa | - | - | - | - |
| 1778171168 | 13.33° C | 61% | 1013.1 hPa | - | - | - | - |
| 1778170568 | 13.33° C | 59% | 1013 hPa | - | - | - | - |
* Rain since midnight (hover to see other rain measurements)
** Current wind speed in m/s (hover to see current wind gust speed)